Location: Maiden
(35.5760°N, 81.2120°W)
Time: 12:26:25
(UTC-04:00)

Cosmos 1340 - Pass Details

Date: 14 June 2018
Orbit: 503 x 508 km, 81.2° (Epoch: 20 June)

Event Time Altitude Azimuth Distance (km) Brightness Sun altitude
Rises 23:43:56 0° 358° (N) 2,611 7.3 -26.4°
Reaches altitude 10° 23:46:07 10° 5° (N) 1,723 6.1 -26.6°
Enters shadow 23:48:12 28° 23° (NNE) 972 4.4 -26.8°
